[[{"header":{"parameterUnit":"m.s-1","parameterCategory":1,"la1":30.2991,"la2":30.254,"lo1":-89.0895,"lo2":-89.0444,"dy":0.0017,"dx":0.0017,"nx":28,"ny":28,"refTime":"2023-10-09T03:00:00:Z","depth":0,"parameterNumber":2,"parameterNumberName":"U-component_of_WINDS"},"data":[0,0,0,0,0,0,0,0,0,0,0,0,0,0,0,0,0,0,0,0,0,0,0,0,0,0,0,0,0,0,0,0,0,0,0,0,0,0,0,0,0,0,0,0,0,0,0,0,0,0,0,0,0,0,0,0,0,0,0.2242,0.2242,0,0.2285,0.2286,0.2286,0.2315,0.2315,0.2315,0.2315,0.2359,0.236,0.2361,0,0,0,0,0,0,0,0,0,0,0,0,0,0.2181,0.2182,0.2241,0.2242,0.2243,0.2285,0.2286,0.2286,0.2315,0.2315,0.2315,0.2315,0.2359,0.236,0.2361,0,0,0,0,0,0,0,0,0,0,0,0,0,0.2214,0.2183,0.2241,0.2262,0.2264,0.2285,0.2286,0.2286,0.2315,0.2315,0.2315,0.2315,0.2359,0.236,0.2362,0.2365,0,0,0.2366,0.2367,0,0,0,0,0,0,0,0,0.2212,0.2217,0.2258,0.226,0.2263,0.2295,0.2281,0.2313,0.2315,0.2295,0.2315,0.2316,0.2338,0.2341,0.2348,0.2367,0.2369,0.2366,0.2367,0.2368,0.2368,0,0,0,0,0,0,0,0.221,0.2215,0.2259,0.2259,0.2262,0.2268,0.2273,0.2287,0.2314,0.2297,0.2299,0.2304,0.2339,0.2347,0.235,0.237,0.2366,0.2368,0.2368,0.2369,0.2393,0.2393,0,0,0,0,0,0,0.2205,0.2213,0.2257,0.226,0.2238,0.2269,0.2275,0.2284,0.2314,0.2319,0.2304,0.2305,0.2344,0.2348,0.2351,0.2357,0.2368,0.2369,0.237,0.2394,0.2393,0.2393,0,0,0,0,0,0,0.2203,0.2208,0.2256,0.2237,0.2244,0.227,0.228,0.2285,0.2293,0.2319,0.2324,0.2307,0.2345,0.2349,0.2361,0.2359,0.237,0.2371,0.2394,0.2393,0.2393,0.237,0,0,0,0,0,0,0.2202,0.2208,0.221,0.2237,0.2244,0.2265,0.228,0.2286,0.2296,0.2298,0.2324,0.2328,0.2345,0.2359,0.2363,0.2362,0.2372,0.2394,0.2394,0.2393,0.2371,0.2368,0.2367,0,0,0,0,0,0.2199,0.2202,0.221,0.2215,0.2248,0.2265,0.227,0.2289,0.2295,0.2297,0.2314,0.2327,0.2359,0.236,0.2365,0.2364,0.2394,0.2394,0.2393,0.2372,0.2369,0.2367,0,0,0,0,0,0,0.2173,0.2205,0.2215,0.2226,0.2243,0.227,0.2273,0.2286,0.2301,0.2302,0.2326,0.2331,0.2341,0.2354,0.2354,0.2368,0.2378,0.2378,0.236,0.2358,0.2356,0.2352,0.2374,0,0,0,0,0,0.2169,0.2181,0.2208,0.2215,0.2223,0.2247,0.2255,0.2269,0.2287,0.2294,0.2312,0.2328,0.2342,0.235,0.2364,0.2372,0.2378,0.2374,0.2372,0.237,0.237,0.2374,0.2373,0.2391,0.2391,0.2391,0,0,0.216,0.2179,0.2185,0.2211,0.2225,0.2237,0.2252,0.2264,0.2273,0.2296,0.2308,0.2322,0.2342,0.2352,0.2357,0.2363,0.2366,0.2369,0.2368,0.2369,0.2374,0.2372,0.237,0.2391,0.2391,0.2391,0,0,0.215,0.2165,0.2173,0.2187,0.2209,0.2224,0.2226,0.2251,0.2261,0.2274,0.2291,0.2301,0.2325,0.2338,0.2348,0.2342,0.2354,0.2345,0.2335,0.2339,0.2337,0.2336,0.2334,0.2332,0.2345,0.2345,0.2345,0,0.2136,0.2154,0.2175,0.2186,0.2196,0.2217,0.2225,0.2237,0.2262,0.2269,0.2274,0.2303,0.2318,0.2332,0.233,0.2337,0.2339,0.2343,0.2336,0.2335,0.2334,0.2332,0.2331,0.2344,0.2344,0.2344,0.2344,0,0.2136,0.2148,0.2152,0.2175,0.2186,0.2195,0.2217,0.2225,0.2237,0.2252,0.2264,0.2283,0.2301,0.2305,0.2317,0.2319,0.2322,0.2331,0.2342,0.2331,0.2329,0.2328,0.2342,0.2343,0.2343,0.2343,0,0,0.2111,0.2146,0.2147,0.2158,0.2183,0.2192,0.2202,0.2219,0.2226,0.2242,0.225,0.2269,0.2277,0.2288,0.2302,0.2306,0.2299,0.2315,0.2315,0.2311,0.2302,0.2295,0.2293,0.2307,0.2307,0.2307,0.23,0,0.2105,0.2123,0.2142,0.2154,0.2165,0.2185,0.2193,0.2209,0.2222,0.2233,0.2248,0.2261,0.2272,0.2278,0.2283,0.2299,0.2297,0.2299,0.2314,0.2315,0.2309,0.2293,0.2285,0.2278,0.23,0.2299,0.2299,0,0.21,0.2115,0.2128,0.2151,0.2157,0.2164,0.2181,0.2192,0.221,0.2219,0.2231,0.2246,0.2256,0.2264,0.2278,0.2279,0.2286,0.2295,0.2295,0.2297,0.2307,0.2294,0.2276,0.2275,0.2299,0.2299,0.2299,0,0.208,0.2104,0.2114,0.2123,0.2151,0.2155,0.2167,0.2185,0.2194,0.2209,0.2215,0.2231,0.2239,0.2251,0.2269,0.2273,0.228,0.2291,0.2288,0.2288,0.2289,0.2289,0.2272,0.2294,0.2294,0.2294,0.2294,0,0.207,0.2077,0.2106,0.2113,0.2121,0.2142,0.2149,0.2162,0.2178,0.2187,0.2205,0.2213,0.2236,0.2247,0.2261,0.227,0.2274,0.2281,0.2285,0.228,0.2279,0.2285,0.2286,0.2293,0.2293,0.2293,0.2294,0,0.205,0.2069,0.2082,0.2107,0.2114,0.2119,0.214,0.2147,0.2161,0.2172,0.2176,0.2198,0.2211,0.223,0.2249,0.2258,0.2265,0.2271,0.2259,0.2262,0.2258,0.2258,0.2244,0.2243,0.2266,0.2265,0.2265,0,0.2043,0.2049,0.2074,0.2082,0.2093,0.2105,0.2114,0.2135,0.2143,0.2164,0.2168,0.2183,0.2195,0.2215,0.2233,0.2247,0.2253,0.2248,0.2256,0.225,0.2253,0.2252,0.2253,0.2246,0.2245,0.2245,0.2245,0,0.2028,0.2037,0.205,0.2066,0.2077,0.2091,0.2105,0.211,0.2133,0.2142,0.2156,0.2166,0.2185,0.2199,0.2216,0.2227,0.2239,0.2242,0.2242,0.2237,0.223,0.2233,0.2254,0.2243,0.2243,0.2243,0.2243,0.2243,0.2014,0.202,0.2039,0.2052,0.2065,0.2078,0.2086,0.2101,0.2113,0.213,0.2141,0.2154,0.2171,0.2195,0.2205,0.2215,0.2221,0.2221,0.2221,0.2221,0.2219,0.2228,0.2219,0.2219,0.2219,0.2219,0.2219,0,0.1999,0.2012,0.2025,0.2045,0.2055,0.2066,0.2083,0.2091,0.2102,0.2117,0.2129,0.2144,0.2158,0.2176,0.2191,0.2195,0.2201,0.2198,0.2198,0.22,0.2214,0.2212,0.2193,0.2193,0.2193,0.2193,0.2193,0.2193,0.1993,0.2004,0.2015,0.2032,0.2045,0.2058,0.2066,0.2078,0.209,0.2106,0.2118,0.213,0.2146,0.2162,0.2174,0.2179,0.2183,0.2178,0.2185,0.2197,0.22,0.2202,0.22,0.2179,0.2179,0.2171,0.2171,0.2171]},{"header":{"parameterUnit":"m.s-1","parameterCategory":1,"la1":30.2991,"la2":30.254,"lo1":-89.0895,"lo2":-89.0444,"dy":0.0017,"dx":0.0017,"nx":28,"ny":28,"refTime":"2023-10-09T03:00:00:Z","depth":0,"parameterNumber":3,"parameterNumberName":"V-component_of_WINDS"},"data":[0,0,0,0,0,0,0,0,0,0,0,0,0,0,0,0,0,0,0,0,0,0,0,0,0,0,0,0,0,0,0,0,0,0,0,0,0,0,0,0,0,0,0,0,0,0,0,0,0,0,0,0,0,0,0,0,0,0,3.2507,3.2507,0,3.2483,3.2482,3.2482,3.2495,3.2496,3.2496,3.2497,3.2466,3.2465,3.2463,0,0,0,0,0,0,0,0,0,0,0,0,0,3.2561,3.256,3.2507,3.2507,3.2507,3.2483,3.2482,3.2482,3.2495,3.2496,3.2497,3.2497,3.2467,3.2465,3.2463,0,0,0,0,0,0,0,0,0,0,0,0,0,3.2537,3.256,3.2507,3.251,3.251,3.2483,3.2482,3.2482,3.2495,3.2496,3.2497,3.2498,3.2467,3.2465,3.2463,3.2429,0,0,3.2456,3.2455,0,0,0,0,0,0,0,0,3.2538,3.2535,3.251,3.251,3.251,3.2493,3.249,3.2464,3.2494,3.25,3.2497,3.2498,3.2474,3.2471,3.2464,3.2428,3.2426,3.2456,3.2455,3.2454,3.2453,0,0,0,0,0,0,0,3.254,3.2536,3.2497,3.251,3.251,3.2511,3.2509,3.2485,3.2482,3.25,3.2501,3.2498,3.2474,3.2466,3.2464,3.2426,3.2456,3.2454,3.2453,3.2452,3.2361,3.236,0,0,0,0,0,0,3.2542,3.2538,3.2498,3.2497,3.2527,3.251,3.2507,3.2497,3.2482,3.2481,3.2497,3.2499,3.2469,3.2466,3.2462,3.2422,3.2454,3.2452,3.245,3.2362,3.2361,3.2359,0,0,0,0,0,0,3.2543,3.2539,3.2499,3.2517,3.2513,3.2508,3.2497,3.2496,3.2489,3.248,3.2479,3.249,3.247,3.2466,3.2438,3.2421,3.2451,3.2449,3.2363,3.2361,3.236,3.2341,0,0,0,0,0,0,3.2545,3.2539,3.2527,3.2517,3.2512,3.2476,3.2496,3.2495,3.2486,3.2487,3.2473,3.2472,3.2471,3.2441,3.2436,3.2419,3.2447,3.2365,3.2362,3.236,3.2343,3.2339,3.2336,0,0,0,0,0,3.2547,3.2521,3.2526,3.2522,3.2497,3.2475,3.2472,3.2473,3.2484,3.2472,3.2466,3.2472,3.2424,3.2438,3.2432,3.2414,3.2366,3.2363,3.2361,3.2345,3.234,3.2336,0,0,0,0,0,0,3.2527,3.252,3.2526,3.2497,3.2487,3.2478,3.2462,3.2467,3.2452,3.2454,3.2454,3.2451,3.2422,3.2416,3.2431,3.2381,3.2396,3.2393,3.2387,3.2382,3.2378,3.238,3.2445,0,0,0,0,0,3.252,3.2505,3.2499,3.2474,3.2469,3.2466,3.2457,3.2458,3.2447,3.2443,3.2435,3.2423,3.2405,3.2393,3.2376,3.2343,3.2339,3.2328,3.2324,3.2321,3.2317,3.2299,3.2294,3.2351,3.2351,3.2351,0,0,3.2504,3.2498,3.2488,3.247,3.2462,3.2445,3.2462,3.2443,3.243,3.2439,3.2413,3.2407,3.2393,3.2363,3.2349,3.2356,3.2301,3.2317,3.2315,3.2313,3.2296,3.2291,3.2286,3.2349,3.235,3.235,0,0,3.2466,3.2461,3.244,3.2432,3.2422,3.242,3.2415,3.2406,3.2403,3.2377,3.2384,3.2367,3.2337,3.2327,3.2318,3.2278,3.2283,3.2272,3.2252,3.2234,3.223,3.2226,3.2211,3.2206,3.2269,3.2269,3.2269,0,3.2447,3.2423,3.2427,3.2409,3.24,3.241,3.2388,3.238,3.2363,3.2356,3.2366,3.2328,3.2319,3.2287,3.2278,3.227,3.2263,3.2274,3.2231,3.2226,3.2223,3.2209,3.2204,3.2268,3.2268,3.2268,3.2268,0,3.24,3.2384,3.2368,3.2354,3.2344,3.2323,3.2323,3.2312,3.2315,3.2312,3.2286,3.2276,3.2258,3.225,3.2252,3.2218,3.2223,3.2231,3.2246,3.2216,3.2203,3.2198,3.2266,3.2266,3.2267,3.2267,0,0,3.2348,3.2339,3.2333,3.2327,3.2317,3.2303,3.2283,3.2267,3.2257,3.2246,3.2228,3.2203,3.2211,3.2201,3.2202,3.2186,3.2155,3.2197,3.2196,3.2189,3.2117,3.2111,3.2105,3.2159,3.2158,3.2157,3.2119,0,3.231,3.2277,3.228,3.2248,3.2233,3.2242,3.2225,3.2215,3.2213,3.2198,3.2194,3.2176,3.2188,3.2182,3.2168,3.2162,3.2141,3.2165,3.2141,3.2141,3.2145,3.2098,3.2091,3.2055,3.2114,3.2113,3.2112,0,3.2261,3.225,3.2217,3.221,3.2203,3.2188,3.2174,3.216,3.215,3.2149,3.2138,3.2142,3.212,3.2137,3.2107,3.2123,3.2114,3.211,3.2108,3.2106,3.2124,3.2094,3.2044,3.2038,3.2104,3.2105,3.2105,0,3.2226,3.2203,3.2181,3.2175,3.2167,3.2155,3.2151,3.2142,3.2133,3.212,3.2114,3.2098,3.2089,3.2076,3.2075,3.2087,3.2044,3.2061,3.2042,3.2042,3.2032,3.2033,3.1979,3.2026,3.2027,3.2027,3.2027,0,3.2183,3.2162,3.2165,3.2151,3.2128,3.2132,3.2108,3.2105,3.2097,3.2082,3.2088,3.2073,3.2073,3.2058,3.2056,3.2032,3.2027,3.2025,3.2025,3.2024,3.2025,3.2018,3.202,3.2025,3.2026,3.2026,3.2026,0,3.214,3.2142,3.2118,3.2112,3.211,3.2093,3.2088,3.2074,3.2073,3.2053,3.2049,3.2045,3.2027,3.2026,3.2004,3.2003,3.1973,3.1976,3.1977,3.1978,3.1959,3.1961,3.1899,3.1891,3.1944,3.1943,3.1943,0,3.2112,3.2097,3.209,3.2082,3.2077,3.2062,3.2054,3.2057,3.2047,3.2035,3.2022,3.2006,3.1992,3.1963,3.1958,3.1941,3.1943,3.1923,3.194,3.1941,3.1943,3.1944,3.1942,3.1919,3.1918,3.1918,3.1917,0,3.2062,3.2064,3.2052,3.2041,3.203,3.2021,3.2012,3.2004,3.2006,3.1994,3.1977,3.1967,3.1946,3.1929,3.1913,3.1907,3.1912,3.1912,3.1907,3.1906,3.1907,3.1906,3.1968,3.1913,3.1914,3.1914,3.1914,3.1914,3.2026,3.2013,3.2007,3.1993,3.1988,3.1979,3.1967,3.1964,3.1951,3.1936,3.1938,3.1919,3.1909,3.1889,3.1882,3.1866,3.1872,3.1865,3.1863,3.1861,3.1859,3.1911,3.1863,3.1863,3.1863,3.1863,3.1863,0,3.1976,3.1974,3.1961,3.195,3.1939,3.1947,3.1938,3.1928,3.1912,3.1903,3.1891,3.1871,3.1855,3.1849,3.1833,3.1822,3.1824,3.1817,3.1818,3.1816,3.1854,3.186,3.1816,3.1816,3.1816,3.1816,3.1816,3.1816,3.1949,3.1928,3.193,3.1905,3.1902,3.1885,3.1879,3.1872,3.1865,3.1844,3.1831,3.1829,3.1821,3.1805,3.179,3.1788,3.1782,3.1775,3.1774,3.1809,3.1814,3.1818,3.1824,3.1773,3.1773,3.1738,3.1738,3.1737]}]]